Location: *
(2.5500°S, 65.9667°W)
Time: 13:04:33
(UTC+00:00)

Okean O Rocket - Pass Details

Date: 31 May 2022
Orbit: 623 x 643 km, 98.2° (Epoch: 30 June)

Event Time Altitude Azimuth Distance (km) Brightness Sun altitude
Exits shadow 23:09:22 14° 136° (SE) 1,723 3.3 -12.0°
Maximum altitude 23:12:28 32° 78° (ENE) 1,069 2.3 -12.7°
Drops below altitude 10° 23:16:19 10° 15° (NNE) 1,983 4.2 -13.6°
Sets 23:18:40 0° 5° (N) 2,885 5.2 -14.2°
